TimeCDT,TemperatureF,Dew PointF,Humidity,Sea Level PressureIn,VisibilityMPH,Wind Direction,Wind SpeedMPH,Gust SpeedMPH,PrecipitationIn,Events,Conditions,WindDirDegrees,DateUTC
12:51 AM,80.1,73.0,79,29.91,10.0,SE,18.4,27.6,N/A,,Mostly Cloudy,140,2013-05-28 05:51:00
1:51 AM,80.1,73.0,79,29.90,10.0,SE,21.9,-,N/A,,Mostly Cloudy,140,2013-05-28 06:51:00
2:51 AM,80.1,73.0,79,29.87,10.0,SSE,20.7,-,N/A,,Mostly Cloudy,150,2013-05-28 07:51:00
3:51 AM,80.1,73.0,79,29.86,10.0,SSE,18.4,26.5,N/A,,Mostly Cloudy,150,2013-05-28 08:51:00
4:51 AM,80.1,73.0,79,29.86,10.0,SSE,17.3,27.6,N/A,,Overcast,150,2013-05-28 09:51:00
5:51 AM,80.1,73.9,81,29.85,9.0,SSE,21.9,28.8,N/A,,Overcast,150,2013-05-28 10:51:00
6:51 AM,80.1,73.0,79,29.85,9.0,SSE,18.4,-,N/A,,Mostly Cloudy,150,2013-05-28 11:51:00
7:51 AM,81.0,73.0,77,29.85,9.0,SSE,21.9,27.6,N/A,,Mostly Cloudy,160,2013-05-28 12:51:00
8:15 AM,82.4,73.4,74,29.85,10.0,SSE,23.0,33.4,N/A,,Mostly Cloudy,160,2013-05-28 13:15:00
8:51 AM,82.0,73.0,74,29.86,10.0,SSE,19.6,29.9,N/A,,Mostly Cloudy,160,2013-05-28 13:51:00
9:51 AM,86.0,72.0,63,29.86,10.0,SSE,24.2,31.1,N/A,,Mostly Cloudy,160,2013-05-28 14:51:00
10:51 AM,87.1,72.0,61,29.86,10.0,SSE,27.6,34.5,N/A,,Mostly Cloudy,150,2013-05-28 15:51:00
11:51 AM,89.1,72.0,57,29.86,10.0,SSE,25.3,34.5,N/A,,Mostly Cloudy,150,2013-05-28 16:51:00
12:51 PM,91.0,72.0,53,29.85,10.0,SSE,25.3,36.8,N/A,,Scattered Clouds,150,2013-05-28 17:51:00
1:51 PM,91.0,72.0,53,29.84,10.0,SE,29.9,36.8,N/A,,Scattered Clouds,140,2013-05-28 18:51:00
2:51 PM,91.0,72.0,53,29.83,10.0,SE,25.3,35.7,N/A,,Mostly Cloudy,140,2013-05-28 19:51:00
3:51 PM,90.0,72.0,55,29.81,10.0,SE,31.1,35.7,N/A,,Mostly Cloudy,130,2013-05-28 20:51:00
4:51 PM,90.0,72.0,55,29.79,10.0,SE,35.7,43.7,N/A,,Mostly Cloudy,140,2013-05-28 21:51:00
5:33 PM,87.8,71.6,58,29.79,10.0,SE,33.4,40.3,N/A,,Mostly Cloudy,130,2013-05-28 22:33:00
5:51 PM,87.1,72.0,61,29.78,10.0,SE,32.2,41.4,N/A,,Mostly Cloudy,140,2013-05-28 22:51:00
6:51 PM,84.9,72.0,65,29.78,10.0,SE,29.9,40.3,N/A,,Mostly Cloudy,140,2013-05-28 23:51:00
7:03 PM,84.2,71.6,66,29.79,10.0,SE,29.9,38.0,N/A,,Scattered Clouds,140,2013-05-29 00:03:00
7:51 PM,82.9,72.0,69,29.79,10.0,SE,27.6,36.8,N/A,,Scattered Clouds,140,2013-05-29 00:51:00
8:51 PM,81.0,72.0,74,29.80,10.0,SE,23.0,32.2,N/A,,Partly Cloudy,140,2013-05-29 01:51:00
9:13 PM,80.6,73.4,79,29.79,10.0,SE,25.3,35.7,N/A,,Mostly Cloudy,140,2013-05-29 02:13:00
9:51 PM,81.0,72.0,74,29.80,10.0,SE,26.5,-,N/A,,Mostly Cloudy,130,2013-05-29 02:51:00
10:51 PM,81.0,72.0,74,29.81,10.0,SE,24.2,32.2,N/A,,Mostly Cloudy,140,2013-05-29 03:51:00
11:51 PM,81.0,73.0,77,29.81,10.0,SE,27.6,34.5,N/A,,Mostly Cloudy,140,2013-05-29 04:51:00